Location: *
(50.0228°S, 177.2688°W)
Time: 02:17:15
(UTC+00:00)

CZ-2C R/B - Pass Details

Date: 07 April 2020
Orbit: 639 x 705 km, 98.4° (Epoch: 03 June)

Event Time Altitude Azimuth Distance (km) Brightness Sun altitude
Rises 06:39:13 0° 16° (NNE) 2,965 6.8 -13.1°
Reaches altitude 10° 06:41:26 10° 15° (NNE) 2,056 6.0 -13.4°
Maximum altitude 06:45:55 88° 283° (WNW) 660 3.7 -14.2°
Drops below altitude 10° 06:50:27 10° 195° (SSW) 2,074 6.5 -14.9°
Sets 06:52:40 0° 194° (SSW) 2,993 7.4 -15.2°
